Back to catalog

N-1 DEB

AliveLEO
NORAD 13132·DEBRIS·🇯🇵 Japan

Launched Feb 16, 1978 from Tanegashima Space Center

Loading…

Next Passes (next 24 hours)

TLE

FreshSource: Space-Track

Epoch: Sep 14, 2026, 07:01 UTC

1 13132U 78018C   26257.29240825 -.00000059  00000-0 -16537-4 0  9990
2 13132  69.2091 358.7590 0208737  29.4810   1.9363 13.34992836365281

Track N-1 DEB in real time with AllMySat

Download on the App Store